| time (UTC) | temp F | wind direction | speed MPH | gust MPH | rain 1hr in | rain 24hr in | rain mn in | humidity % | barometer mb |
| 20260903115704 | 73 | 194 | 0.0 | 0.0 | 0.00 | 0.00 | 0.00 | 100 | 1009.1 |
| 20260903115204 | 73 | 193 | 0.0 | 0.0 | 0.00 | 0.00 | 0.00 | 100 | 1009.2 |
| 20260903114204 | 73 | 262 | 0.0 | 0.0 | 0.00 | 0.00 | 0.00 | 100 | 1009.6 |
| 20260903113704 | 73 | 207 | 0.0 | 0.0 | 0.00 | 0.00 | 0.00 | 100 | 1009.7 |
| 20260903113204 | 73 | 231 | 0.0 | 0.0 | 0.00 | 0.00 | 0.00 | 100 | 1009.7 |
| 20260903112703 | 73 | 225 | 0.0 | 0.0 | 0.00 | 0.00 | 0.00 | 100 | 1009.6 |
| 20260903112203 | 73 | 225 | 0.0 | 0.0 | 0.00 | 0.00 | 0.00 | 100 | 1009.6 |
| 20260903111704 | 72 | 246 | 0.0 | 0.0 | 0.00 | 0.00 | 0.00 | 100 | 1009.6 |
| 20260903111203 | 72 | 276 | 0.0 | 0.0 | 0.00 | 0.00 | 0.00 | 100 | 1009.5 |
| 20260903110703 | 72 | 215 | 0.0 | 0.0 | 0.00 | 0.00 | 0.00 | 100 | 1009.4 |
| 20260903110203 | 72 | 215 | 0.0 | 0.0 | 0.00 | 0.00 | 0.00 | 100 | 1009.5 |
| 20260903105704 | 72 | 215 | 0.0 | 0.0 | 0.00 | 0.00 | 0.00 | 100 | 1009.5 |
| 20260903105204 | 72 | 215 | 0.0 | 0.0 | 0.00 | 0.00 | 0.00 | 100 | 1009.6 |
| 20260903104703 | 72 | 215 | 0.0 | 0.0 | 0.00 | 0.00 | 0.00 | 100 | 1009.6 |
| 20260903104204 | 72 | 214 | 0.0 | 0.0 | 0.00 | 0.00 | 0.00 | 100 | 1009.9 |
| 20260903103703 | 72 | 157 | 0.0 | 0.0 | 0.00 | 0.00 | 0.00 | 100 | 1009.7 |
| 20260903103203 | 72 | 156 | 0.0 | 0.0 | 0.00 | 0.00 | 0.00 | 100 | 1009.7 |
| 20260903102704 | 72 | 156 | 0.0 | 0.0 | 0.00 | 0.00 | 0.00 | 100 | 1009.6 |
| 20260903102203 | 72 | 155 | 0.0 | 0.0 | 0.00 | 0.00 | 0.00 | 100 | 1009.5 |
| 20260903101704 | 72 | 154 | 0.0 | 0.0 | 0.00 | 0.00 | 0.00 | 100 | 1009.6 |
| 20260903101203 | 72 | 154 | 0.0 | 0.0 | 0.00 | 0.00 | 0.00 | 100 | 1009.6 |
| 20260903100704 | 72 | 154 | 0.0 | 0.0 | 0.00 | 0.00 | 0.00 | 100 | 1009.5 |
| 20260903100204 | 72 | 154 | 0.0 | 0.0 | 0.00 | 0.00 | 0.00 | 100 | 1009.5 |
| 20260903095703 | 72 | 154 | 0.0 | 0.0 | 0.00 | 0.00 | 0.00 | 100 | 1009.5 |
| 20260903095203 | 72 | 154 | 0.0 | 0.0 | 0.00 | 0.00 | 0.00 | 100 | 1009.5 |
| 20260903094204 | 72 | 147 | 0.0 | 0.0 | 0.00 | 0.00 | 0.00 | 100 | 1009.4 |
| 20260903093703 | 72 | 147 | 0.0 | 0.0 | 0.00 | 0.00 | 0.00 | 100 | 1009.3 |
| 20260903093203 | 72 | 147 | 0.0 | 0.0 | 0.00 | 0.00 | 0.00 | 100 | 1009.4 |
| 20260903092704 | 72 | 147 | 0.0 | 0.0 | 0.00 | 0.00 | 0.00 | 100 | 1009.4 |
| 20260903092203 | 72 | 147 | 0.0 | 0.0 | 0.00 | 0.00 | 0.00 | 99 | 1009.3 |
| 20260903091704 | 72 | 147 | 0.0 | 0.0 | 0.00 | 0.00 | 0.00 | 99 | 1009.4 |
| 20260903091204 | 72 | 147 | 0.0 | 0.0 | 0.00 | 0.00 | 0.00 | 99 | 1009.5 |
| 20260903090704 | 72 | 147 | 0.0 | 0.0 | 0.00 | 0.00 | 0.00 | 98 | 1009.4 |
| 20260903090203 | 72 | 147 | 0.0 | 0.0 | 0.00 | 0.00 | 0.00 | 97 | 1009.3 |
| 20260903085703 | 72 | 147 | 0.0 | 0.0 | 0.00 | 0.00 | 0.00 | 97 | 1009.3 |
| 20260903085204 | 72 | 147 | 0.0 | 0.0 | 0.00 | 0.00 | 0.00 | 97 | 1009.3 |
| 20260903084703 | 72 | 134 | 0.0 | 0.0 | 0.00 | 0.00 | 0.00 | 97 | 1009.2 |
| 20260903084203 | 72 | 134 | 0.0 | 0.0 | 0.00 | 0.00 | 0.00 | 96 | 1009.2 |
| 20260903083203 | 72 | 134 | 0.0 | 0.0 | 0.00 | 0.00 | 0.00 | 96 | 1009.3 |
| 20260903082703 | 72 | 134 | 0.0 | 0.0 | 0.00 | 0.00 | 0.00 | 95 | 1009.3 |
| 20260903081703 | 72 | 134 | 0.0 | 0.0 | 0.00 | 0.00 | 0.00 | 94 | 1009.6 |
| 20260903080704 | 73 | 134 | 0.0 | 0.0 | 0.00 | 0.00 | 0.00 | 94 | 1009.5 |
| 20260903080203 | 73 | 134 | 0.0 | 0.0 | 0.00 | 0.00 | 0.00 | 93 | 1009.6 |
| 20260903075204 | 73 | 134 | 0.0 | 0.0 | 0.00 | 0.00 | 0.00 | 92 | 1009.5 |
| 20260903074703 | 73 | 134 | 0.0 | 0.0 | 0.00 | 0.00 | 0.00 | 92 | 1009.6 |
| 20260903074203 | 73 | 134 | 0.0 | 0.0 | 0.00 | 0.00 | 0.00 | 91 | 1009.7 |
| 20260903073202 | 73 | 134 | 0.0 | 0.0 | 0.00 | 0.00 | 0.00 | 91 | 1009.7 |
| 20260903072203 | 73 | 134 | 0.0 | 0.0 | 0.00 | 0.00 | 0.00 | 90 | 1009.8 |
| 20260903071702 | 73 | 134 | 0.0 | 0.0 | 0.00 | 0.00 | 0.00 | 89 | 1009.8 |
| 20260903070703 | 73 | 134 | 0.0 | 0.0 | 0.00 | 0.01 | 0.00 | 88 | 1009.8 |
| 20260903070203 | 73 | 134 | 0.0 | 0.0 | 0.00 | 0.01 | 0.00 | 88 | 1009.9 |
| 20260903065703 | 73 | 134 | 0.0 | 0.0 | 0.00 | 0.01 | 0.00 | 88 | 1009.9 |
| 20260903065202 | 74 | 134 | 0.0 | 0.0 | 0.00 | 0.01 | 0.00 | 87 | 1009.9 |
| 20260903064702 | 74 | 134 | 0.0 | 0.0 | 0.00 | 0.01 | 0.00 | 86 | 1009.9 |
| 20260903063702 | 74 | 134 | 0.0 | 0.0 | 0.00 | 0.01 | 0.00 | 86 | 1010.0 |
| 20260903063202 | 74 | 134 | 0.0 | 0.0 | 0.00 | 0.02 | 0.00 | 86 | 1010.0 |
| 20260903061702 | 74 | 150 | 0.0 | 0.0 | 0.00 | 0.02 | 0.00 | 85 | 1009.9 |
| 20260903061203 | 74 | 154 | 0.0 | 0.0 | 0.00 | 0.02 | 0.00 | 84 | 1010.0 |
| 20260903060703 | 74 | 155 | 0.0 | 0.0 | 0.00 | 0.02 | 0.00 | 83 | 1010.0 |
| 20260903060203 | 74 | 155 | 0.0 | 0.0 | 0.00 | 0.02 | 0.00 | 83 | 1010.0 |
| 20260903055702 | 74 | 147 | 0.0 | 0.0 | 0.00 | 0.02 | 0.00 | 83 | 1010.0 |
| 20260903055202 | 74 | 147 | 0.0 | 0.0 | 0.00 | 0.02 | 0.00 | 82 | 1010.1 |
| 20260903054702 | 74 | 147 | 0.0 | 0.0 | 0.00 | 0.02 | 0.00 | 82 | 1010.1 |
| 20260903053702 | 75 | 135 | 0.0 | 0.0 | 0.00 | 0.02 | 0.00 | 81 | 1010.1 |
| 20260903053202 | 75 | 135 | 0.0 | 0.0 | 0.00 | 0.02 | 0.00 | 81 | 1010.1 |
| 20260903051702 | 75 | 125 | 0.0 | 0.0 | 0.00 | 0.02 | 0.00 | 79 | 1010.0 |
| 20260903050703 | 75 | 139 | 0.0 | 0.0 | 0.00 | 0.02 | 0.00 | 79 | 1010.1 |
| 20260903050202 | 75 | 139 | 0.0 | 0.0 | 0.00 | 0.02 | 0.00 | 78 | 1010.2 |
| 20260903045702 | 75 | 139 | 0.0 | 0.0 | 0.00 | 0.02 | 0.02 | 78 | 1010.2 |
| 20260903044703 | 74 | 136 | 0.0 | 0.0 | 0.00 | 0.02 | 0.02 | 77 | 1010.2 |
| 20260903044203 | 74 | 136 | 0.0 | 0.0 | 0.00 | 0.02 | 0.02 | 76 | 1010.3 |
| 20260903043703 | 74 | 136 | 0.0 | 0.0 | 0.00 | 0.02 | 0.02 | 76 | 1010.3 |
| 20260903043202 | 74 | 126 | 0.0 | 0.0 | 0.00 | 0.02 | 0.02 | 75 | 1010.3 |
| 20260903042203 | 74 | 223 | 0.0 | 0.0 | 0.00 | 0.02 | 0.02 | 74 | 1010.5 |
| 20260903041702 | 74 | 223 | 0.0 | 0.0 | 0.00 | 0.02 | 0.02 | 73 | 1010.6 |
| 20260903041203 | 74 | 223 | 0.0 | 0.0 | 0.00 | 0.02 | 0.02 | 73 | 1010.6 |
| 20260903040202 | 75 | 223 | 0.0 | 0.0 | 0.00 | 0.02 | 0.02 | 72 | 1010.5 |
| 20260903035703 | 75 | 223 | 0.0 | 0.0 | 0.00 | 0.02 | 0.02 | 72 | 1010.5 |
| 20260903034703 | 75 | 223 | 0.0 | 0.0 | 0.00 | 0.02 | 0.02 | 71 | 1010.5 |
| 20260903034202 | 75 | 223 | 0.0 | 0.0 | 0.00 | 0.02 | 0.02 | 70 | 1010.6 |
| 20260903033702 | 75 | 223 | 0.0 | 0.0 | 0.00 | 0.02 | 0.02 | 70 | 1010.6 |
| 20260903033203 | 75 | 223 | 0.0 | 0.0 | 0.00 | 0.02 | 0.02 | 70 | 1010.6 |
| 20260903032702 | 75 | 223 | 0.0 | 0.0 | 0.00 | 0.02 | 0.02 | 70 | 1010.6 |
| 20260903031702 | 75 | 223 | 0.0 | 0.0 | 0.00 | 0.02 | 0.02 | 69 | 1010.6 |
| 20260903031203 | 75 | 223 | 0.0 | 0.0 | 0.00 | 0.02 | 0.02 | 69 | 1010.6 |
| 20260903030703 | 75 | 223 | 0.0 | 0.0 | 0.00 | 0.02 | 0.02 | 69 | 1010.6 |
| 20260903030203 | 76 | 223 | 0.0 | 0.0 | 0.00 | 0.02 | 0.02 | 68 | 1010.6 |
| 20260903025703 | 76 | 223 | 0.0 | 0.0 | 0.00 | 0.02 | 0.02 | 68 | 1010.6 |
| 20260903025203 | 76 | 223 | 0.0 | 0.0 | 0.00 | 0.02 | 0.02 | 68 | 1010.6 |
| 20260903024703 | 76 | 223 | 0.0 | 0.0 | 0.00 | 0.02 | 0.02 | 68 | 1010.6 |
| 20260903024203 | 76 | 223 | 0.0 | 0.0 | 0.00 | 0.02 | 0.02 | 67 | 1010.5 |
| 20260903023702 | 76 | 223 | 0.0 | 0.0 | 0.00 | 0.02 | 0.02 | 67 | 1010.5 |
| 20260903023203 | 76 | 223 | 0.0 | 0.0 | 0.00 | 0.02 | 0.02 | 67 | 1010.5 |
| 20260903022703 | 76 | 223 | 0.0 | 0.0 | 0.00 | 0.02 | 0.02 | 67 | 1010.5 |
| 20260903022202 | 76 | 223 | 0.0 | 0.0 | 0.00 | 0.02 | 0.02 | 67 | 1010.5 |
| 20260903021703 | 77 | 223 | 0.0 | 0.0 | 0.00 | 0.02 | 0.02 | 67 | 1010.4 |
| 20260903021203 | 77 | 223 | 0.0 | 0.0 | 0.00 | 0.02 | 0.02 | 67 | 1010.4 |
| 20260903020702 | 77 | 223 | 0.0 | 0.0 | 0.00 | 0.02 | 0.02 | 66 | 1010.4 |
| 20260903015703 | 77 | 223 | 0.0 | 0.0 | 0.00 | 0.02 | 0.02 | 66 | 1010.4 |
| 20260903015203 | 78 | 223 | 0.0 | 0.0 | 0.00 | 0.02 | 0.02 | 66 | 1010.5 |
| 20260903014703 | 78 | 223 | 0.0 | 0.0 | 0.00 | 0.02 | 0.02 | 66 | 1010.4 |
| 20260903014202 | 78 | 223 | 0.0 | 0.0 | 0.00 | 0.02 | 0.02 | 66 | 1010.3 |
| 20260903012703 | 79 | 224 | 0.0 | 0.0 | 0.00 | 0.02 | 0.02 | 65 | 1010.2 |
| 20260903011703 | 79 | 223 | 0.0 | 0.0 | 0.00 | 0.02 | 0.02 | 64 | 1010.1 |
| 20260903011202 | 79 | 223 | 0.0 | 0.0 | 0.00 | 0.02 | 0.02 | 64 | 1010.0 |
| 20260903010702 | 80 | 223 | 0.0 | 0.0 | 0.00 | 0.02 | 0.02 | 63 | 1010.0 |
| 20260903010202 | 80 | 223 | 0.0 | 0.0 | 0.00 | 0.02 | 0.02 | 63 | 1009.8 |
| 20260903005703 | 80 | 223 | 0.0 | 0.0 | 0.00 | 0.02 | 0.02 | 62 | 1009.8 |
| 20260903005203 | 80 | 224 | 0.0 | 0.0 | 0.00 | 0.02 | 0.02 | 62 | 1009.8 |
| 20260903004702 | 81 | 224 | 0.0 | 0.0 | 0.00 | 0.02 | 0.02 | 62 | 1009.8 |
| 20260903004203 | 81 | 224 | 0.0 | 0.0 | 0.00 | 0.02 | 0.02 | 61 | 1009.8 |
| 20260903003703 | 81 | 224 | 0.0 | 0.0 | 0.00 | 0.02 | 0.02 | 60 | 1009.9 |
| 20260903002703 | 82 | 223 | 0.0 | 0.0 | 0.00 | 0.02 | 0.02 | 59 | 1009.8 |
| 20260903002203 | 82 | 223 | 0.0 | 0.0 | 0.00 | 0.02 | 0.02 | 59 | 1009.8 |
| 20260903001702 | 82 | 223 | 0.0 | 0.0 | 0.00 | 0.02 | 0.02 | 58 | 1009.8 |
| 20260903001202 | 82 | 224 | 0.0 | 0.0 | 0.00 | 0.02 | 0.02 | 58 | 1009.9 |
| 20260903000703 | 82 | 223 | 0.0 | 0.0 | 0.00 | 0.02 | 0.02 | 57 | 1009.9 |
| 20260902235703 | 83 | 223 | 0.0 | 0.0 | 0.00 | 0.02 | 0.02 | 56 | 1010.0 |
| 20260902235203 | 83 | 223 | 0.0 | 0.0 | 0.00 | 0.02 | 0.02 | 56 | 1009.9 |
| 20260902234203 | 83 | 223 | 0.0 | 0.0 | 0.00 | 0.02 | 0.02 | 55 | 1009.9 |
| 20260902233704 | 83 | 223 | 0.0 | 0.0 | 0.00 | 0.02 | 0.02 | 54 | 1009.9 |
| 20260902233203 | 83 | 223 | 0.0 | 0.0 | 0.00 | 0.02 | 0.02 | 54 | 1009.9 |
| 20260902232703 | 83 | 223 | 0.0 | 0.0 | 0.00 | 0.02 | 0.02 | 54 | 1010.0 |
| 20260902231203 | 83 | 224 | 0.0 | 0.0 | 0.00 | 0.02 | 0.02 | 53 | 1010.0 |
| 20260902230702 | 83 | 223 | 0.0 | 0.0 | 0.00 | 0.02 | 0.02 | 53 | 1010.1 |
| 20260902230203 | 83 | 231 | 0.0 | 0.0 | 0.00 | 0.02 | 0.02 | 54 | 1010.0 |
| 20260902225702 | 84 | 178 | 0.0 | 0.0 | 0.00 | 0.02 | 0.02 | 53 | 1010.1 |
| 20260902225203 | 84 | 165 | 0.0 | 0.0 | 0.00 | 0.02 | 0.02 | 53 | 1010.0 |
| 20260902224703 | 84 | 159 | 0.0 | 0.0 | 0.00 | 0.02 | 0.02 | 53 | 1010.1 |
| 20260902224203 | 84 | 147 | 0.0 | 0.0 | 0.00 | 0.02 | 0.02 | 52 | 1010.0 |
| 20260902223203 | 84 | 110 | 0.0 | 0.0 | 0.00 | 0.02 | 0.02 | 53 | 1010.0 |
| 20260902222203 | 84 | 191 | 0.0 | 0.0 | 0.00 | 0.02 | 0.02 | 51 | 1010.1 |
| 20260902221703 | 84 | 204 | 0.0 | 0.0 | 0.00 | 0.02 | 0.02 | 51 | 1010.0 |
| 20260902221203 | 84 | 203 | 0.0 | 0.0 | 0.00 | 0.02 | 0.02 | 51 | 1010.0 |
| 20260902220703 | 84 | 203 | 0.0 | 0.0 | 0.00 | 0.02 | 0.02 | 52 | 1010.0 |
| 20260902220203 | 84 | 203 | 0.0 | 0.0 | 0.00 | 0.02 | 0.02 | 51 | 1010.0 |
| 20260902215703 | 85 | 237 | 0.0 | 0.0 | 0.00 | 0.02 | 0.02 | 53 | 1010.1 |
| 20260902215202 | 85 | 237 | 0.0 | 0.0 | 0.00 | 0.02 | 0.02 | 53 | 1010.1 |
| 20260902214703 | 85 | 237 | 0.0 | 0.0 | 0.00 | 0.02 | 0.02 | 52 | 1010.1 |
| 20260902214203 | 85 | 237 | 0.0 | 0.0 | 0.00 | 0.02 | 0.02 | 52 | 1010.1 |
| 20260902213703 | 85 | 237 | 0.0 | 0.0 | 0.00 | 0.02 | 0.02 | 53 | 1010.2 |
| 20260902213203 | 85 | 237 | 0.0 | 0.0 | 0.00 | 0.02 | 0.02 | 50 | 1010.2 |
| 20260902212703 | 85 | 236 | 0.0 | 0.0 | 0.00 | 0.02 | 0.02 | 50 | 1010.3 |
| 20260902212203 | 86 | 294 | 0.0 | 0.0 | 0.00 | 0.02 | 0.02 | 50 | 1010.3 |
| 20260902211703 | 86 | 296 | 0.0 | 0.0 | 0.00 | 0.02 | 0.02 | 51 | 1010.3 |
| 20260902211203 | 86 | 230 | 0.0 | 0.0 | 0.00 | 0.02 | 0.02 | 50 | 1010.4 |
| 20260902210703 | 86 | 230 | 0.0 | 0.0 | 0.00 | 0.02 | 0.02 | 51 | 1010.4 |
| 20260902205702 | 86 | 192 | 0.0 | 0.0 | 0.00 | 0.02 | 0.02 | 50 | 1010.4 |
| 20260902205203 | 86 | 228 | 0.0 | 0.0 | 0.00 | 0.02 | 0.02 | 51 | 1010.4 |
| 20260902204703 | 86 | 142 | 0.0 | 0.0 | 0.00 | 0.02 | 0.02 | 51 | 1010.4 |
| 20260902204203 | 86 | 231 | 0.0 | 0.0 | 0.00 | 0.02 | 0.02 | 51 | 1010.4 |
| 20260902203702 | 86 | 218 | 0.0 | 0.0 | 0.00 | 0.02 | 0.02 | 51 | 1010.5 |
| 20260902203204 | 86 | 186 | 0.0 | 0.0 | 0.00 | 0.02 | 0.02 | 53 | 1010.5 |
| 20260902202703 | 86 | 188 | 0.0 | 0.0 | 0.00 | 0.02 | 0.02 | 52 | 1010.5 |
| 20260902201702 | 85 | 228 | 0.0 | 0.0 | 0.00 | 0.02 | 0.02 | 52 | 1010.7 |
| 20260902201203 | 85 | 293 | 0.0 | 0.0 | 0.00 | 0.02 | 0.02 | 52 | 1010.8 |
| 20260902200704 | 85 | 96 | 0.0 | 0.0 | 0.00 | 0.02 | 0.02 | 52 | 1010.9 |
| 20260902200203 | 85 | 196 | 0.0 | 0.0 | 0.00 | 0.02 | 0.02 | 53 | 1010.9 |
| 20260902195703 | 85 | 209 | 0.0 | 0.0 | 0.00 | 0.02 | 0.02 | 53 | 1010.9 |
| 20260902195203 | 85 | 148 | 0.0 | 0.0 | 0.00 | 0.02 | 0.02 | 54 | 1011.1 |
| 20260902194703 | 84 | 293 | 0.0 | 0.0 | 0.00 | 0.02 | 0.02 | 54 | 1011.1 |
| 20260902194203 | 84 | 292 | 0.0 | 0.0 | 0.00 | 0.02 | 0.02 | 55 | 1011.1 |
| 20260902193703 | 84 | 200 | 0.0 | 0.0 | 0.00 | 0.02 | 0.02 | 55 | 1011.1 |
| 20260902193203 | 83 | 200 | 0.0 | 0.0 | 0.00 | 0.02 | 0.02 | 56 | 1011.3 |
| 20260902192703 | 83 | 90 | 0.0 | 0.0 | 0.00 | 0.02 | 0.02 | 56 | 1011.4 |
| 20260902192203 | 83 | 90 | 0.0 | 0.0 | 0.00 | 0.02 | 0.02 | 56 | 1011.4 |
| 20260902191703 | 83 | 18 | 0.0 | 0.0 | 0.00 | 0.02 | 0.02 | 55 | 1011.4 |
| 20260902191203 | 83 | 114 | 0.0 | 0.0 | 0.00 | 0.02 | 0.02 | 57 | 1011.5 |
| 20260902190703 | 82 | 114 | 0.0 | 0.0 | 0.00 | 0.02 | 0.02 | 57 | 1011.5 |
| 20260902190203 | 82 | 31 | 0.0 | 0.0 | 0.00 | 0.02 | 0.02 | 57 | 1011.5 |
| 20260902185703 | 82 | 68 | 0.0 | 0.0 | 0.00 | 0.02 | 0.02 | 57 | 1011.6 |
| 20260902185204 | 82 | 68 | 0.0 | 0.0 | 0.00 | 0.02 | 0.02 | 58 | 1011.4 |
| 20260902184703 | 82 | 67 | 0.0 | 0.0 | 0.00 | 0.02 | 0.02 | 58 | 1011.6 |
| 20260902184203 | 82 | 241 | 0.0 | 0.0 | 0.00 | 0.02 | 0.02 | 59 | 1011.5 |
| 20260902183203 | 81 | 94 | 0.0 | 0.0 | 0.00 | 0.02 | 0.02 | 58 | 1011.5 |
| 20260902182703 | 81 | 94 | 0.0 | 0.0 | 0.00 | 0.02 | 0.02 | 61 | 1011.7 |
| 20260902182204 | 81 | 93 | 0.0 | 0.0 | 0.00 | 0.02 | 0.02 | 59 | 1011.6 |
| 20260902181703 | 81 | 260 | 0.0 | 0.0 | 0.00 | 0.02 | 0.02 | 61 | 1011.4 |
| 20260902181203 | 80 | 87 | 0.0 | 0.0 | 0.00 | 0.02 | 0.02 | 62 | 1011.6 |
| 20260902180703 | 80 | 227 | 0.0 | 0.0 | 0.00 | 0.02 | 0.02 | 62 | 1011.7 |
| 20260902180203 | 80 | 235 | 0.0 | 0.0 | 0.00 | 0.02 | 0.02 | 62 | 1011.7 |
| 20260902175703 | 80 | 211 | 0.0 | 0.0 | 0.00 | 0.02 | 0.02 | 65 | 1011.7 |
| 20260902175203 | 79 | 236 | 0.0 | 0.0 | 0.00 | 0.02 | 0.02 | 64 | 1011.9 |
| 20260902174204 | 79 | 200 | 0.0 | 0.0 | 0.00 | 0.02 | 0.02 | 64 | 1012.1 |
| 20260902173704 | 79 | 202 | 0.0 | 0.0 | 0.00 | 0.02 | 0.02 | 68 | 1012.2 |
| 20260902173203 | 78 | 219 | 0.0 | 0.0 | 0.00 | 0.02 | 0.02 | 70 | 1012.3 |
| 20260902172703 | 78 | 192 | 0.0 | 0.0 | 0.00 | 0.02 | 0.02 | 71 | 1012.3 |
| 20260902172203 | 78 | 213 | 0.0 | 0.0 | 0.00 | 0.02 | 0.02 | 72 | 1012.3 |
| 20260902171703 | 77 | 269 | 0.0 | 0.0 | 0.00 | 0.02 | 0.02 | 73 | 1012.3 |
| 20260902171203 | 77 | 259 | 0.0 | 0.0 | 0.00 | 0.02 | 0.02 | 73 | 1012.5 |
| 20260902170703 | 77 | 0 | 0.0 | 0.0 | 0.00 | 0.02 | 0.02 | 75 | 1012.7 |
| 20260902170203 | 77 | 1 | 0.0 | 0.0 | 0.00 | 0.02 | 0.02 | 74 | 1012.7 |
| 20260902165703 | 76 | 283 | 0.0 | 0.0 | 0.00 | 0.02 | 0.02 | 78 | 1012.8 |
| 20260902164203 | 75 | 134 | 0.0 | 0.0 | 0.00 | 0.02 | 0.02 | 82 | 1012.2 |
| 20260902163703 | 75 | 134 | 0.0 | 0.0 | 0.00 | 0.02 | 0.02 | 81 | 1012.4 |
| 20260902163203 | 75 | 134 | 0.0 | 0.0 | 0.00 | 0.02 | 0.02 | 82 | 1012.5 |
| 20260902162704 | 75 | 122 | 0.0 | 0.0 | 0.00 | 0.02 | 0.02 | 83 | 1012.4 |
| 20260902161704 | 74 | 142 | 0.0 | 0.0 | 0.00 | 0.02 | 0.02 | 86 | 1012.3 |
| 20260902161203 | 74 | 209 | 0.0 | 0.0 | 0.00 | 0.02 | 0.02 | 86 | 1012.3 |
| 20260902160703 | 74 | 278 | 0.0 | 0.0 | 0.00 | 0.02 | 0.02 | 86 | 1012.4 |
| 20260902155703 | 74 | 279 | 0.0 | 0.0 | 0.00 | 0.02 | 0.02 | 88 | 1012.4 |
| 20260902155204 | 73 | 279 | 0.0 | 0.0 | 0.00 | 0.02 | 0.02 | 91 | 1012.3 |
| 20260902154703 | 73 | 279 | 0.0 | 0.0 | 0.00 | 0.02 | 0.02 | 91 | 1012.1 |
| 20260902154204 | 73 | 134 | 0.0 | 0.0 | 0.00 | 0.02 | 0.02 | 91 | 1012.0 |
| 20260902153703 | 73 | 215 | 0.0 | 0.0 | 0.00 | 0.02 | 0.02 | 92 | 1012.0 |
| 20260902153204 | 72 | 215 | 0.0 | 0.0 | 0.00 | 0.02 | 0.02 | 93 | 1011.9 |
| 20260902152703 | 72 | 241 | 0.0 | 0.0 | 0.00 | 0.02 | 0.02 | 94 | 1011.9 |
| 20260902151703 | 72 | 120 | 0.0 | 0.0 | 0.00 | 0.02 | 0.02 | 96 | 1011.9 |
| 20260902150204 | 71 | 181 | 0.0 | 0.0 | 0.00 | 0.02 | 0.02 | 98 | 1011.9 |
| 20260902145203 | 70 | 240 | 0.0 | 0.0 | 0.00 | 0.02 | 0.02 | 100 | 1011.9 |
| 20260902144703 | 70 | 118 | 0.0 | 0.0 | 0.00 | 0.02 | 0.02 | 100 | 1011.9 |
| 20260902144203 | 70 | 113 | 0.0 | 0.0 | 0.00 | 0.02 | 0.02 | 100 | 1011.9 |
| 20260902143203 | 69 | 76 | 0.0 | 0.0 | 0.00 | 0.02 | 0.02 | 100 | 1012.1 |
| 20260902142705 | 69 | 100 | 0.0 | 0.0 | 0.00 | 0.02 | 0.02 | 100 | 1012.2 |
| 20260902141203 | 68 | 113 | 0.0 | 0.0 | 0.00 | 0.02 | 0.02 | 100 | 1012.3 |
| 20260902140703 | 68 | 113 | 0.0 | 0.0 | 0.00 | 0.02 | 0.02 | 100 | 1012.2 |
| 20260902140203 | 67 | 117 | 0.0 | 0.0 | 0.00 | 0.02 | 0.02 | 100 | 1012.1 |
| 20260902135703 | 67 | 117 | 0.0 | 0.0 | 0.00 | 0.02 | 0.02 | 100 | 1012.1 |
| 20260902135203 | 67 | 117 | 0.0 | 0.0 | 0.00 | 0.02 | 0.02 | 100 | 1012.1 |
| 20260902134703 | 67 | 139 | 0.0 | 0.0 | 0.00 | 0.02 | 0.02 | 100 | 1012.2 |
| 20260902134204 | 67 | 154 | 0.0 | 0.0 | 0.00 | 0.02 | 0.02 | 100 | 1012.3 |
| 20260902133703 | 67 | 158 | 0.0 | 0.0 | 0.00 | 0.02 | 0.02 | 100 | 1012.3 |
| 20260902133203 | 67 | 116 | 0.0 | 0.0 | 0.00 | 0.02 | 0.02 | 100 | 1012.3 |
| 20260902132703 | 67 | 23 | 0.0 | 0.0 | 0.00 | 0.02 | 0.02 | 100 | 1012.3 |
| 20260902132203 | 67 | 23 | 0.0 | 0.0 | 0.00 | 0.02 | 0.02 | 100 | 1012.3 |
| 20260902131703 | 67 | 23 | 0.0 | 0.0 | 0.00 | 0.02 | 0.02 | 100 | 1012.3 |
| 20260902131203 | 66 | 23 | 0.0 | 0.0 | 0.00 | 0.02 | 0.02 | 100 | 1012.3 |
| 20260902130704 | 66 | 24 | 0.0 | 0.0 | 0.00 | 0.02 | 0.02 | 100 | 1012.3 |
| 20260902130203 | 66 | 305 | 0.0 | 0.0 | 0.00 | 0.02 | 0.02 | 100 | 1012.3 |
| 20260902125704 | 66 | 305 | 0.0 | 0.0 | 0.00 | 0.02 | 0.02 | 100 | 1012.3 |
| 20260902125204 | 66 | 305 | 0.0 | 0.0 | 0.00 | 0.02 | 0.02 | 100 | 1012.2 |
| 20260902124203 | 66 | 305 | 0.0 | 0.0 | 0.00 | 0.02 | 0.02 | 100 | 1012.3 |
| 20260902123703 | 66 | 305 | 0.0 | 0.0 | 0.00 | 0.02 | 0.02 | 100 | 1012.3 |
| 20260902123203 | 66 | 305 | 0.0 | 0.0 | 0.00 | 0.02 | 0.02 | 100 | 1012.2 |
| 20260902122704 | 66 | 305 | 0.0 | 0.0 | 0.00 | 0.02 | 0.02 | 100 | 1012.2 |
| 20260902122204 | 66 | 305 | 0.0 | 0.0 | 0.00 | 0.02 | 0.02 | 100 | 1012.3 |
| 20260902121703 | 66 | 307 | 0.0 | 0.0 | 0.00 | 0.02 | 0.02 | 100 | 1012.3 |
| 20260902121203 | 66 | 307 | 0.0 | 0.0 | 0.00 | 0.02 | 0.02 | 100 | 1012.2 |
| 20260902120703 | 66 | 307 | 0.0 | 0.0 | 0.00 | 0.02 | 0.02 | 100 | 1012.1 |
| 20260902120203 | 66 | 307 | 0.0 | 0.0 | 0.00 | 0.02 | 0.02 | 99 | 1012.0 |